カタログに戻る

CZ-6A DEB

運用中PO
NORAD 60685·DEBRIS·🇨🇳 China

打ち上げ Aug 6, 2024 から Taiyuan Satellite Launch Center

Loading…

次のパス (今後24時間)

TLE

最新Source: Space-Track

元期: Sep 14, 2026, 06:59 UTC

1 60685U 24140CN  26257.29116566  .00001787  00000-0  45152-3 0  9997
2 60685  88.9959 260.7194 0077021   6.0196 354.1917 14.48848361110754

AllMySatでCZ-6A DEBをリアルタイム追跡

Download on the App Store